This demonstration page uses our WeatherBlox Daily Observations layout. Learn more.

Left ArrowRight Arrow

38.20091, -84.87328

Hourly Observations for August 3, 2018

Temp ( °F °C ) Dew Point ( °F °C ) Humidity (%) Winds ( mph kmh ) Pressure ( in mb ) Visibility ( mi km ) Precip ( " mm )
12:53 am 00:53 Clear 68 20 66 18.9 93 93 Calm 30.06 1018 9 14 0.00 0.00
1:53 am 01:53 Clear 68 20 66 18.9 93 93 Calm 30.04 1017 8 13 0.00 0.00
2:34 am 02:34 Mostly Clear with Mist and Fog 67 19.4 65 18.3 93 93 Calm 30.06 1018 3 5 0.00 0.00
2:53 am 02:53 Clear with Mist and Fog 66 18.9 65 18.3 96 96 Calm 30.03 1017 3 5 0.00 0.00
3:00 am 03:00 Clear with Mist and Fog 66 18.9 64 17.8 93 93 Calm 30.06 1018 3 4 0.00 0.00
3:04 am 03:04 Mostly Clear with Mist and Fog 66 18.9 64 17.8 93 93 Calm 30.06 1018 3 5 0.00 0.00
3:53 am 03:53 Mostly Clear 65 18.3 63 17.2 93 93 NNW 3 6 30.03 1017 7 11 0.00 0.00
4:23 am 04:23 Mostly Cloudy 65 18.3 63 17.2 93 93 NNW 3 6 30.06 1018 7 11 0.00 0.00
4:31 am 04:31 Partly Cloudy with Mist and Fog 64 17.8 63 17.2 96 96 Calm 30.06 1018 6 10 0.00 0.00
4:34 am 04:34 Partly Cloudy with Mist and Fog 64 17.8 63 17.2 96 96 Calm 30.06 1018 2 3 0.00 0.00
4:36 am 04:36 Mostly Cloudy with Mist and Fog 64 17.8 63 17.2 96 96 Calm 30.06 1018 1 1 0.00 0.00
4:53 am 04:53 Mostly Cloudy with Mist and Fog 64 17.8 62 16.7 93 93 Calm 30.04 1017 1 2 0.00 0.00
5:07 am 05:07 Cloudy with Mist and Fog 64 17.8 63 17.2 96 96 Calm 30.06 1018 3 4 0.00 0.00
5:14 am 05:14 Mostly Cloudy 64 17.8 63 17.2 96 96 Calm 30.06 1018 8 13 0.00 0.00
5:26 am 05:26 Partly Cloudy 63 17.2 61 16.1 93 93 Calm 30.06 1018 10 16 0.00 0.00
5:34 am 05:34 Mostly Cloudy with Mist and Fog 63 17.2 62 16.7 97 97 Calm 30.06 1018 1 1 0.00 0.00
5:44 am 05:44 Partly Cloudy with Mist and Fog 63 17.2 62 16.7 97 97 Calm 30.06 1018 1 2 0.00 0.00
5:53 am 05:53 Mostly Clear with Mist and Fog 63 17.2 62 16.7 97 97 Calm 30.06 1018 1 2 0.00 0.00
6:02 am 06:02 Mostly Clear with Mist and Fog 63 17.2 63 17.2 100 100 ESE 3 6 30.09 1019 4 6 0.00 0.00
6:53 am 06:53 Sunny 64 17.8 62 16.7 93 93 Calm 30.08 1019 10 16 0.00 0.00
7:53 am 07:53 Sunny 66 18.9 64 17.8 93 93 Calm 30.09 1019 10 16 0.00 0.00
8:53 am 08:53 Sunny 72 22.2 68 20 87 87 Calm 30.10 1019 10 16 0.00 0.00
9:53 am 09:53 Sunny 76 24.4 69 20.6 79 79 SW 3 6 30.10 1019 10 16 0.00 0.00
10:53 am 10:53 Sunny 80 26.7 68 20 67 67 Calm 30.10 1019 10 16 0.00 0.00
11:53 am 11:53 Sunny 82 27.8 68 20 63 63 WSW 7 11 30.11 1020 10 16 0.00 0.00
12:53 pm 12:53 Partly Cloudy 84 28.9 67 19.4 57 57 NW 3 6 30.10 1019 10 16 0.00 0.00
1:53 pm 13:53 Mostly Sunny 85 29.4 67 19.4 55 55 Calm 30.09 1019 10 16 0.00 0.00
2:53 pm 14:53 Mostly Sunny 86 30 68 20 55 55 SSW 7 11 30.09 1019 10 16 0.00 0.00
3:53 pm 15:53 Mostly Sunny 86 30 67 19.4 53 53 VRB 3 6 30.07 1018 10 16 0.00 0.00
4:53 pm 16:53 Sunny 86 30 67 19.4 53 53 VRB 5 7 30.06 1018 10 16 0.00 0.00
5:53 pm 17:53 Mostly Sunny 86 30 67 19.4 53 53 SSW 5 7 30.05 1018 10 16 0.00 0.00
6:53 pm 18:53 Sunny 83 28.3 67 19.4 59 59 W 3 6 30.05 1018 10 16 0.00 0.00
7:53 pm 19:53 Sunny 81 27.2 69 20.6 67 67 Calm 30.05 1018 10 16 0.00 0.00
8:53 pm 20:53 Clear 78 25.6 70 21.1 76 76 WSW 3 6 30.06 1018 10 16 0.00 0.00
9:53 pm 21:53 Clear 75 23.9 69 20.6 82 82 SW 3 6 30.08 1019 10 16 0.00 0.00
10:53 pm 22:53 Clear 74 23.3 69 20.6 85 85 Calm 30.09 1019 10 16 0.00 0.00
11:53 pm 23:53 Clear 73 22.8 68 20 84 84 Calm 30.09 1019 10 16 0.00 0.00

Powered by AerisWeather